TimeEDT,TemperatureF,Dew PointF,Humidity,Sea Level PressureIn,VisibilityMPH,Wind Direction,Wind SpeedMPH,Gust SpeedMPH,PrecipitationIn,Events,Conditions,WindDirDegrees,DateUTC
12:10 AM,39.2,39.2,100,30.10,8.0,Calm,Calm,-,0.01,Rain,Light Rain,0,2012-10-08 04:10:00
12:17 AM,39.2,39.2,100,30.10,8.0,Calm,Calm,-,0.01,Rain,Light Rain,0,2012-10-08 04:17:00
12:51 AM,39.9,39.9,100,30.13,7.0,Calm,Calm,-,0.04,Rain,Light Rain,0,2012-10-08 04:51:00
1:36 AM,39.2,39.2,100,30.12,9.0,Calm,Calm,-,0.02,Rain,Light Rain,0,2012-10-08 05:36:00
1:51 AM,39.9,39.0,97,30.14,8.0,Calm,Calm,-,0.02,Rain,Light Rain,0,2012-10-08 05:51:00
2:00 AM,39.2,39.2,100,30.12,9.0,Calm,Calm,-,0.01,Rain,Light Rain,0,2012-10-08 06:00:00
2:10 AM,39.2,39.2,100,30.12,10.0,Calm,Calm,-,0.01,Rain,Light Rain,0,2012-10-08 06:10:00
2:37 AM,39.2,39.2,100,30.11,10.0,Calm,Calm,-,0.01,,Overcast,0,2012-10-08 06:37:00
2:51 AM,39.0,39.0,100,30.14,10.0,Calm,Calm,-,0.01,,Overcast,0,2012-10-08 06:51:00
3:10 AM,39.2,37.4,93,30.11,10.0,Calm,Calm,-,N/A,,Overcast,0,2012-10-08 07:10:00
3:18 AM,39.2,39.2,100,30.11,10.0,Calm,Calm,-,N/A,,Overcast,0,2012-10-08 07:18:00
3:38 AM,39.2,39.2,100,30.11,8.0,Calm,Calm,-,0.00,Rain,Light Rain,0,2012-10-08 07:38:00
3:51 AM,39.2,39.2,100,30.12,8.0,Calm,Calm,-,N/A,Rain,Light Rain,0,2012-10-08 07:51:00
4:07 AM,39.2,39.2,100,30.12,9.0,Calm,Calm,-,0.00,Rain,Light Rain,0,2012-10-08 08:07:00
4:31 AM,39.2,39.2,100,30.13,10.0,Calm,Calm,-,0.00,,Overcast,0,2012-10-08 08:31:00
4:51 AM,39.9,37.9,93,30.15,10.0,Calm,Calm,-,0.00,,Overcast,0,2012-10-08 08:51:00
5:08 AM,39.2,39.2,100,30.13,10.0,Calm,Calm,-,N/A,,Overcast,0,2012-10-08 09:08:00
5:17 AM,39.2,39.2,100,30.13,10.0,Calm,Calm,-,N/A,,Overcast,0,2012-10-08 09:17:00
5:28 AM,39.2,39.2,100,30.14,10.0,Calm,Calm,-,N/A,,Overcast,0,2012-10-08 09:28:00
5:46 AM,39.2,39.2,100,30.14,10.0,Calm,Calm,-,N/A,,Overcast,0,2012-10-08 09:46:00
5:51 AM,39.0,39.0,100,30.18,10.0,Calm,Calm,-,N/A,,Overcast,0,2012-10-08 09:51:00
6:51 AM,39.9,39.0,97,30.19,10.0,Calm,Calm,-,N/A,,Overcast,0,2012-10-08 10:51:00
7:48 AM,39.2,39.2,100,30.20,10.0,Calm,Calm,-,N/A,,Overcast,0,2012-10-08 11:48:00
7:51 AM,39.9,39.9,100,30.23,10.0,Calm,Calm,-,N/A,,Overcast,0,2012-10-08 11:51:00
8:11 AM,41.0,39.2,93,30.21,10.0,Calm,Calm,-,N/A,,Overcast,0,2012-10-08 12:11:00
8:33 AM,42.8,39.2,87,30.22,10.0,Calm,Calm,-,N/A,,Overcast,0,2012-10-08 12:33:00
8:40 AM,42.8,41.0,93,30.22,10.0,Calm,Calm,-,N/A,,Overcast,0,2012-10-08 12:40:00
8:49 AM,42.8,39.2,87,30.22,10.0,Calm,Calm,-,N/A,,Overcast,0,2012-10-08 12:49:00
8:51 AM,42.8,39.2,87,30.22,10.0,Calm,Calm,-,N/A,,Overcast,0,2012-10-08 12:51:00
8:59 AM,42.8,39.2,87,30.23,10.0,Calm,Calm,-,N/A,,Overcast,0,2012-10-08 12:59:00
9:23 AM,42.8,39.2,87,30.23,10.0,Calm,Calm,-,N/A,,Mostly Cloudy,0,2012-10-08 13:23:00
9:51 AM,43.0,41.0,93,30.27,10.0,Calm,Calm,-,N/A,,Mostly Cloudy,0,2012-10-08 13:51:00
10:05 AM,44.6,39.2,81,30.24,10.0,Calm,Calm,-,N/A,,Overcast,0,2012-10-08 14:05:00
10:28 AM,42.8,41.0,93,30.24,7.0,Variable,3.5,-,0.00,Rain,Light Rain,0,2012-10-08 14:28:00
10:37 AM,42.8,41.0,93,30.24,10.0,North,3.5,-,N/A,Rain,Light Rain,360,2012-10-08 14:37:00
10:51 AM,44.1,42.1,93,30.27,10.0,NW,3.5,-,0.01,,Scattered Clouds,310,2012-10-08 14:51:00
11:14 AM,42.8,39.2,87,30.26,4.0,NNW,8.1,-,0.00,Rain,Light Rain,340,2012-10-08 15:14:00
11:42 AM,44.6,39.2,81,30.26,9.0,NNW,3.5,-,0.02,Rain,Light Rain,340,2012-10-08 15:42:00
11:51 AM,45.0,41.0,86,30.29,10.0,Calm,Calm,-,0.02,,Scattered Clouds,0,2012-10-08 15:51:00
12:51 PM,48.2,39.2,71,30.26,10.0,Variable,6.9,-,N/A,,Clear,0,2012-10-08 16:51:00
1:51 PM,50.0,35.1,57,30.28,10.0,NNW,5.8,-,N/A,,Partly Cloudy,330,2012-10-08 17:51:00
2:51 PM,50.0,32.0,50,30.27,10.0,Calm,Calm,-,N/A,,Clear,0,2012-10-08 18:51:00
3:51 PM,50.0,30.9,48,30.29,10.0,Calm,Calm,-,N/A,,Clear,0,2012-10-08 19:51:00
4:51 PM,50.0,32.0,50,30.29,10.0,ENE,3.5,-,N/A,,Clear,70,2012-10-08 20:51:00
5:51 PM,45.0,39.0,80,30.31,10.0,Calm,Calm,-,N/A,,Clear,0,2012-10-08 21:51:00
6:51 PM,39.9,37.0,89,30.33,10.0,Calm,Calm,-,N/A,,Clear,0,2012-10-08 22:51:00
7:51 PM,39.2,37.4,93,30.30,10.0,Calm,Calm,-,N/A,,Clear,0,2012-10-08 23:51:00
8:51 PM,39.2,35.6,87,30.31,10.0,Calm,Calm,-,N/A,,Clear,0,2012-10-09 00:51:00
9:51 PM,37.9,35.1,89,30.35,10.0,Calm,Calm,-,N/A,,Clear,0,2012-10-09 01:51:00
10:51 PM,36.0,35.1,97,30.37,10.0,South,3.5,-,N/A,,Clear,180,2012-10-09 02:51:00
11:51 PM,36.0,34.0,93,30.36,10.0,Calm,Calm,-,N/A,,Clear,0,2012-10-09 03:51:00